Temp
22 22 22 22 22 22 22 22 22 22 22 22 22 22 22 22 22 22 22 22 22 22 22 22 22 22 22 21 21 22 21 21 22 21 22 22 22 22 22 22 22 22 22 22 22 22 22 22 22 22 22 22 22 22 22 22 22 22 22 22 22 22 22 22 22 22 22 22 22 22 21 21 21 22 21 21 21 21 21 21 21 21 21 21 21
23 22 22 22 22 22 22 22 22 22 22 22 22 22 22 22 22 22 22 22 22 22 22 21 21 21 21 21 21 21 22 22 22 22 22 22 22 22 22 22 22 22 22 22 22 22 22 22 22 22 22 22 21 22 22 22 22 22 22 22 22 22 22 22 22 22 22 22 22 22 22 21 21 22 22 21 21 21 21 21 21 21 21 21 21
23 23 22 22 22 22 22 21 22 22 22 22 22 22 22 22 22 22 22 22 22 22 22 22 22 22 21 22 22 21 22 22 22 22 21 22 22 22 22 22 22 21 21 22 21 22 22 22 22 22 22 22 22 22 22 22 22 22 22 22 22 22 22 22 22 22 22 22 22 22 22 21 21 22 22 21 22 22 21 21 21 21 21 21 21
23 23 22 22 22 22 22 22 22 22 22 22 22 22 22 22 22 22 22 22 22 22 22 22 22 22 22 22 21 21 21 22 21 22 21 21 22 22 22 22 21 21 21 21 21 22 22 22 22 22 22 22 22 22 22 22 22 22 22 22 22 22 22 22 22 22 22 22 22 22 22 22 22 22 22 22 22 21 21 21 21 21 21 21 21
24 23 23 22 22 22 22 22 22 22 22 22 22 22 22 22 22 22 22 22 22 22 22 22 22 22 21 21 21 21 21 21 21 22 22 21 22 22 22 21 21 21 21 21 21 21 21 21 22 22 22 22 22 22 22 22 22 22 22 22 22 22 22 22 22 22 22 22 22 22 22 22 22 21 22 22 22 21 21 21 21 21 21 21 21
24 24 23 23 22 22 22 22 22 22 22 21 21 21 21 21 22 23 23 23 22 22 22 22 22 21 21 21 21 21 21 21 21 21 21 21 21 22 22 21 21 21 21 21 21 21 21 21 21 22 22 22 22 22 22 22 22 22 22 22 22 22 22 22 22 22 22 22 22 22 22 22 22 21 21 21 21 21 21 21 21 21 21 21 21
24 24 24 23 22 22 22 22 22 21 21 21 21 21 21 21 22 22 22 22 22 22 22 22 21 21 21 21 20 21 21 21 21 21 21 21 21 21 22 22 22 22 21 21 21 21 21 21 21 22 22 22 22 22 22 22 22 22 22 22 22 22 22 22 22 22 22 22 22 22 22 22 22 21 21 21 21 21 21 21 21 21 21 21 21
25 24 24 23 22 22 22 22 22 22 22 22 21 21 21 21 22 22 22 22 22 22 22 21 21 21 21 21 21 21 21 21 21 21 21 21 21 21 21 21 21 21 21 21 21 21 21 21 22 22 22 22 22 22 22 22 22 22 22 22 22 22 23 22 22 22 22 22 22 22 22 22 22 21 21 21 21 21 21 21 21 21 21 21 21
24 24 24 24 23 22 22 22 22 22 22 22 21 21 22 22 22 22 22 22 22 22 21 20 20 21 21 21 21 21 21 21 21 21 21 21 21 20 20 21 21 21 21 21 21 21 21 22 22 22 22 22 21 22 22 22 22 22 22 22 22 22 22 22 22 22 22 23 22 22 22 22 22 21 21 21 21 21 21 21 21 21 21 21 21
25 24 25 24 23 22 22 22 22 21 21 21 21 21 22 22 22 22 22 22 22 22 21 20 20 21 21 21 21 21 21 21 21 21 21 21 21 21 21 21 21 21 21 21 21 21 22 22 22 22 22 22 22 22 22 22 22 22 22 22 22 22 22 23 23 23 23 23 23 22 22 22 22 21 21 21 21 21 21 21 21 21 21 21 21
25 25 25 24 23 22 22 21 21 21 21 21 21 21 21 22 22 22 22 22 21 21 21 20 20 21 21 21 21 21 21 21 21 21 21 21 21 21 21 21 21 21 21 21 21 21 22 22 22 22 22 22 22 22 22 22 22 22 22 22 22 22 22 23 23 23 23 23 23 23 22 22 22 21 21 21 21 21 21 21 21 21 21 21 21
24 25 24 23 23 22 22 22 21 21 21 21 21 21 21 22 22 22 22 21 20 20 21 21 21 21 21 21 21 21 21 21 21 21 21 21 21 21 21 21 21 21 21 21 21 22 22 21 22 22 22 22 22 22 22 22 22 22 22 23 23 22 22 23 23 24 23 23 23 23 23 22 21 21 21 21 21 21 21 21 21 21 21 21 21
26 25 24 23 22 22 22 21 21 21 21 21 21 21 21 22 22 22 22 21 20 21 21 21 21 21 21 21 21 21 21 21 21 21 21 21 21 21 22 21 21 21 21 21 22 22 22 22 21 21 22 22 22 22 22 22 22 22 23 23 23 22 22 23 24 24 23 23 23 23 23 22 21 21 21 21 21 21 21 21 21 21 21 21 21
27 26 24 23 22 22 22 21 21 21 21 21 21 21 21 22 22 22 21 20 20 21 21 21 21 21 21 21 21 21 21 21 21 21 21 21 21 21 22 21 21 21 21 21 22 22 22 22 22 22 22 22 22 22 22 22 22 22 23 23 23 23 23 24 24 24 23 23 23 23 22 21 21 21 21 21 21 21 21 21 21 21 20 20 20
26 26 24 23 22 22 22 22 21 21 21 21 21 21 22 22 22 21 21 20 21 21 21 21 21 21 21 21 21 21 21 21 21 21 21 21 21 21 21 21 21 21 21 21 22 22 22 22 22 21 21 22 22 22 22 22 23 23 22 23 23 23 23 24 24 24 23 23 23 23 22 21 22 21 21 21 21 21 21 21 21 20 20 20 20
26 25 24 23 22 22 22 22 22 21 21 21 21 22 22 22 21 21 21 20 21 20 20 21 21 21 21 21 21 21 21 21 21 21 21 21 21 21 21 21 21 21 21 22 22 22 22 22 22 22 21 22 22 23 23 23 23 23 23 23 23 24 24 24 24 24 24 23 23 23 22 21 22 21 21 21 21 21 21 21 20 20 20 20 20
25 24 24 23 23 23 22 22 22 21 20 21 22 22 22 21 21 21 21 21 21 21 21 21 21 21 21 21 21 21 21 21 21 21 21 21 21 21 21 21 21 21 21 22 22 22 22 22 22 22 22 23 23 23 23 23 23 23 23 23 23 24 24 24 25 25 24 24 23 23 22 21 22 21 21 21 21 21 21 20 20 20 20 20 20
24 24 23 24 24 24 23 22 22 21 21 21 22 22 21 21 21 20 21 21 21 21 21 21 21 21 21 21 21 21 21 21 21 21 21 21 21 21 21 21 21 21 21 22 22 22 22 22 22 22 23 23 23 23 23 23 23 23 23 23 24 24 25 25 25 25 25 25 24 23 22 22 22 21 21 21 21 21 21 20 20 20 20 20 20
23 24 24 24 24 24 23 22 22 21 21 22 22 21 21 21 21 21 21 21 21 21 21 21 21 21 21 21 21 21 21 21 21 21 21 21 21 21 21 21 21 21 21 22 22 22 22 22 22 23 23 23 23 23 23 23 23 23 23 24 24 24 25 26 26 25 25 25 24 22 22 22 22 21 21 21 21 21 21 21 20 20 20 20 20
24 23 24 24 24 24 24 22 22 21 21 22 21 21 21 21 21 21 21 21 21 21 21 21 21 21 21 21 21 21 21 21 21 21 21 21 22 22 21 21 21 21 22 22 22 22 22 22 23 23 23 23 23 23 23 23 23 24 24 24 24 24 25 26 26 26 25 24 23 22 22 22 22 21 20 20 20 20 20 20 20 20 20 20 20
25 23 23 23 24 25 24 23 22 22 21 22 22 21 21 21 21 21 21 21 21 21 21 21 21 21 21 21 21 21 22 21 22 22 21 21 22 22 22 22 22 22 22 22 22 22 22 22 23 23 23 23 23 24 24 24 24 24 24 24 24 25 26 26 26 25 25 24 23 22 22 22 21 21 20 20 20 20 20 20 20 20 20 20 20
26 25 24 24 24 25 25 24 23 22 21 21 22 22 21 21 22 21 21 21 21 21 22 22 22 22 22 21 21 22 22 21 22 22 21 21 22 22 22 22 22 22 22 23 22 22 22 23 23 23 23 23 23 23 24 24 24 24 25 25 25 25 26 26 26 26 25 24 23 22 22 22 21 21 20 20 20 20 20 20 20 20 20 20 20
26 26 25 25 25 25 25 25 23 22 22 22 22 22 22 21 21 21 21 21 21 22 22 22 22 22 22 22 22 22 22 22 22 22 22 22 22 22 22 22 22 22 23 23 23 23 23 23 24 24 24 24 23 23 24 24 24 25 25 25 25 26 26 26 26 26 25 24 23 23 22 22 22 21 20 20 20 20 21 20 20 20 20 20 20
27 26 26 25 25 25 25 25 24 23 23 22 22 22 23 23 22 22 22 22 22 22 22 22 22 22 22 22 22 22 22 22 22 22 22 22 23 23 23 23 23 23 23 23 23 23 24 24 24 24 24 24 24 24 25 25 25 25 25 26 26 26 26 27 27 26 25 24 23 23 23 22 22 21 21 21 21 20 21 21 20 21 20 20 20
27 26 26 25 25 25 25 24 24 24 24 24 23 23 23 24 23 23 22 22 22 22 23 22 22 23 23 23 23 23 22 22 23 23 23 22 22 22 23 23 23 24 24 23 23 24 24 24 24 24 24 24 25 26 27 27 27 27 27 27 26 27 27 27 26 26 25 24 24 24 23 23 22 22 21 21 21 21 21 21 21 21 21 21 21
27 26 26 26 25 25 25 25 24 25 24 24 24 24 24 24 24 24 23 23 23 23 23 23 22 23 24 24 24 23 23 23 23 23 23 23 23 23 23 23 24 24 24 24 24 24 24 24 24 25 25 26 27 27 27 28 28 27 27 27 27 27 27 27 26 26 26 24 24 24 23 23 23 22 21 21 21 21 21 21 21 21 21 21 21
27 27 26 26 26 25 25 25 25 25 24 24 24 25 25 25 25 25 25 24 24 24 24 24 23 24 24 24 24 24 24 24 24 23 23 23 23 23 23 24 24 24 24 24 24 24 25 25 25 25 26 27 27 27 27 27 28 28 27 27 27 27 27 27 27 27 26 25 25 25 24 24 23 23 23 22 22 22 21 21 21 21 21 21 21
27 27 27 26 26 25 25 25 25 25 25 25 25 25 25 25 25 25 25 25 25 25 25 24 24 24 24 24 24 24 25 25 24 24 24 24 24 24 24 24 25 25 25 25 25 25 25 26 26 26 26 27 27 27 28 27 28 28 27 27 27 27 27 27 27 27 27 25 24 25 24 24 24 23 23 23 23 23 22 22 22 22 22 22 21
28 27 27 27 26 26 25 25 25 25 25 25 25 25 25 25 25 25 25 25 26 26 25 25 25 25 25 25 26 26 26 26 25 25 25 25 25 25 25 25 26 26 26 26 26 26 26 26 26 26 26 27 28 28 28 28 28 28 28 28 28 28 28 27 27 27 27 26 25 25 25 24 24 24 24 24 24 23 23 23 23 23 23 23 22
28 28 27 27 27 26 26 26 25 25 25 26 26 25 25 25 25 25 25 25 26 25 25 25 25 25 25 26 26 26 26 26 26 25 25 25 25 25 26 26 26 26 26 26 26 26 26 26 26 27 27 27 27 28 28 29 29 29 28 28 29 28 28 28 27 27 27 27 26 25 25 25 24 24 24 24 24 24 24 24 24 23 23 23 23
28 28 27 27 27 27 26 26 25 25 26 26 25 25 25 25 25 25 25 25 26 26 26 26 26 25 25 25 26 26 26 26 26 25 25 26 25 26 26 26 26 26 25 26 26 26 26 26 26 26 27 27 27 28 29 29 29 29 29 29 29 29 28 28 28 28 28 27 26 25 25 25 25 25 25 25 24 24 24 24 24 24 24 24 24
28 28 27 27 27 27 26 26 25 25 26 26 25 25 25 25 25 25 25 25 26 26 26 26 26 25 24 24 25 25 26 26 25 26 26 26 26 26 26 26 26 26 25 25 25 25 26 26 26 26 26 27 27 28 29 29 29 29 29 29 29 29 28 29 29 29 28 27 27 26 26 25 25 25 25 25 25 25 25 25 24 24 24 24 24
29 28 28 28 27 27 26 26 25 25 26 26 26 26 26 26 26 26 25 25 26 26 26 26 25 25 24 24 24 24 25 25 25 25 26 26 26 26 26 25 25 25 25 25 25 25 26 26 26 26 27 27 28 28 29 29 29 30 30 29 29 29 29 29 29 29 28 28 27 27 27 26 26 26 26 26 25 25 25 25 25 25 25 25 25
29 28 28 28 28 27 27 26 26 25 26 26 26 26 26 26 26 26 26 26 26 26 26 26 25 25 24 24 24 24 24 25 25 25 26 26 26 25 25 25 25 25 25 24 25 26 26 26 26 26 26 28 29 29 30 30 29 30 30 30 29 29 29 29 29 29 29 29 28 28 28 27 27 26 26 26 26 26 26 26 26 25 25 25 25
29 28 28 28 28 27 27 27 26 25 25 25 26 26 26 26 26 26 26 27 27 27 26 26 26 25 25 24 24 24 24 24 24 25 26 26 26 26 25 25 25 25 25 24 25 26 26 25 25 25 26 28 29 29 29 29 30 29 29 29 29 29 29 29 29 29 29 29 28 28 28 28 28 27 27 27 27 26 26 26 26 26 26 26 25
29 28 28 28 28 27 27 27 26 26 25 25 25 25 26 26 26 26 26 27 27 27 27 27 26 26 25 25 24 24 24 24 24 25 26 26 26 26 25 25 24 25 25 25 25 25 25 25 25 26 26 27 29 30 29 29 30 29 29 29 29 29 30 29 29 30 29 29 29 28 28 27 27 27 27 27 27 27 27 26 26 26 26 26 26
29 28 28 28 28 27 27 27 26 26 25 25 25 25 25 25 26 26 26 27 28 27 27 27 26 26 26 25 24 24 24 24 24 24 25 26 26 26 25 25 25 25 25 25 25 25 26 26 26 26 26 27 29 30 30 30 30 30 30 30 29 29 30 29 30 30 29 28 28 28 28 28 28 28 28 28 28 27 27 27 27 26 26 26 26
28 28 28 28 28 27 28 27 27 26 25 25 25 25 25 25 26 26 26 27 28 28 28 27 26 26 26 25 24 24 24 24 24 24 25 26 26 26 26 25 25 25 25 26 26 26 26 26 26 26 26 28 29 30 30 30 31 31 31 30 30 29 30 29 29 29 29 29 28 28 29 28 28 28 28 28 28 28 27 27 27 27 27 26 26
28 28 28 28 28 27 27 27 27 26 25 25 25 25 25 25 26 26 26 27 27 27 27 27 26 26 25 24 24 24 24 24 24 24 25 26 26 26 25 25 25 25 25 26 26 26 26 26 26 26 27 28 29 29 30 30 31 31 31 30 30 29 30 29 29 29 29 29 29 28 29 28 28 29 29 29 29 29 28 27 27 27 27 27 27
28 28 28 27 27 27 27 26 27 26 26 25 25 26 26 26 27 26 26 26 27 27 27 27 26 25 25 25 24 24 24 24 24 24 24 25 26 26 25 25 26 25 25 26 26 26 26 26 26 26 27 28 29 29 30 30 30 30 30 30 30 29 29 29 29 30 30 30 29 29 30 29 29 29 29 29 29 29 28 28 28 28 27 27 27
28 28 27 27 27 27 27 26 26 26 26 26 26 26 26 26 27 27 27 26 27 27 27 27 26 25 25 25 25 24 24 24 24 24 24 25 25 25 25 25 26 25 25 26 26 26 26 26 26 26 27 29 29 30 30 30 30 30 30 30 30 30 30 29 29 30 30 30 30 30 30 29 29 30 29 29 28 29 29 28 28 28 27 27 27
28 28 28 27 27 27 27 26 26 26 26 26 26 26 27 27 27 28 27 27 26 27 27 27 27 26 25 25 25 25 24 24 24 24 24 24 25 25 25 25 25 25 25 25 25 25 26 26 26 26 27 29 29 29 29 29 30 31 31 31 30 30 30 30 30 31 31 31 31 31 30 30 30 30 29 29 28 29 29 29 28 27 27 26 26
28 28 28 27 27 27 27 27 26 26 26 26 26 26 26 26 26 27 28 27 26 27 27 27 26 26 25 25 25 24 24 24 24 24 24 25 25 25 25 25 25 25 25 25 25 26 26 26 26 26 27 28 29 29 28 28 29 30 30 30 31 31 30 31 31 31 31 31 31 31 31 30 30 30 29 29 29 29 29 28 27 27 27 27 27
29 28 28 28 27 27 26 26 26 26 26 26 26 26 26 25 25 26 27 26 26 27 27 26 25 26 26 25 25 24 25 25 25 25 25 25 25 25 25 25 25 25 25 25 25 26 26 26 27 27 26 27 29 30 29 28 28 29 29 30 30 28 28 30 31 31 31 31 32 31 31 31 30 30 30 30 30 29 29 28 27 27 27 27 27
29 29 28 28 28 27 26 26 26 26 26 25 25 25 25 25 25 25 26 26 26 26 27 27 26 26 26 26 25 25 25 25 25 25 25 25 24 25 25 25 25 25 25 25 26 26 26 27 27 26 27 27 28 29 29 29 28 28 28 29 28 26 26 29 30 30 30 30 31 31 31 30 30 30 30 30 30 30 29 29 28 27 27 27 27
30 29 29 29 28 27 27 26 26 26 26 25 25 25 25 25 25 25 26 26 26 27 27 27 27 27 27 26 26 25 25 25 25 25 25 25 24 24 25 25 25 25 25 26 26 26 27 27 27 26 27 27 27 28 29 29 29 29 29 28 28 28 28 29 29 29 30 30 30 31 31 31 30 30 30 30 30 30 30 29 29 28 28 27 27
30 30 29 29 29 27 27 26 26 27 26 26 25 25 25 25 25 26 26 26 27 26 27 27 27 27 27 26 26 26 25 25 25 25 25 24 24 24 24 25 26 26 26 26 26 27 28 27 27 26 27 27 27 27 27 28 29 29 29 29 29 30 30 29 28 28 29 29 30 30 31 31 31 31 30 30 30 30 30 30 29 29 28 28 28
30 30 30 29 28 27 27 26 26 26 26 26 25 25 25 25 26 26 26 26 27 26 26 27 27 27 27 27 26 26 25 25 25 25 24 24 24 24 24 25 26 26 26 26 27 27 27 27 26 26 26 26 27 27 27 28 29 29 29 29 30 30 30 30 29 29 28 28 29 30 30 31 31 31 31 31 30 30 29 30 29 29 29 28 28
31 30 30 29 28 27 27 26 26 26 26 26 25 25 25 25 26 26 25 26 26 26 26 27 26 26 26 26 26 26 26 25 25 25 25 25 25 24 25 25 25 26 26 27 27 27 27 26 26 26 26 26 27 27 27 27 28 29 29 28 29 30 30 31 30 31 30 29 27 28 29 30 29 30 30 30 31 30 30 30 29 29 29 28 28
31 30 30 29 28 27 27 26 26 26 26 26 25 25 25 25 26 25 25 26 26 25 26 26 26 26 26 26 26 26 26 26 25 25 25 25 25 25 25 25 25 26 26 26 27 26 26 26 26 26 26 26 26 26 27 28 28 28 29 28 28 29 30 30 31 31 31 30 28 28 28 28 29 29 29 30 30 30 29 29 29 30 29 29 28
31 30 30 30 29 28 27 26 26 26 26 26 25 25 25 25 25 25 25 26 26 25 26 26 26 26 26 26 26 26 26 26 26 25 25 25 25 25 25 25 26 26 26 26 26 27 27 27 27 26 26 26 26 26 27 27 28 28 28 28 29 30 29 30 30 30 30 31 30 29 29 28 29 30 29 29 30 29 29 29 30 30 29 29 29
Height
822 822 823 822 823 822 824 823 824 825 826 826 827 828 828 828 828 828 829 830 830 832 832 830 830 831 833 834 834 833 833 833 833 833 832 831 831 832 832 833 835 836 836 836 836 835 836 836 836 836 837 837 837 838 838 838 839 839 839 840 840 840 841 841 841 841 842 842 842 842 842 842 842 843 843 843 843 844 843 843 843 843 844 844 845
822 823 823 824 824 824 825 824 826 826 827 828 828 829 829 830 829 829 829 831 832 832 833 832 832 833 834 836 836 835 834 833 834 834 834 832 831 832 832 834 836 838 837 837 837 837 837 837 838 838 838 838 839 839 839 840 840 841 841 841 841 841 842 842 843 843 843 843 843 843 843 843 844 844 844 845 845 845 844 844 844 845 845 845 846
822 823 824 824 825 825 826 826 827 827 828 829 829 830 831 831 830 830 829 831 832 832 833 833 833 834 835 836 836 836 835 835 835 835 835 833 833 834 834 836 838 839 839 839 839 839 839 839 839 839 840 840 840 840 841 841 841 842 842 842 842 843 843 844 844 844 844 844 844 844 844 845 845 845 846 846 846 846 846 846 846 846 847 847 847
822 824 825 825 827 826 827 827 828 829 829 830 831 831 832 832 831 830 830 831 831 832 833 833 834 835 836 837 837 836 836 836 836 835 835 834 835 836 837 839 840 841 842 842 842 841 841 840 841 841 841 841 841 841 842 842 843 843 843 844 844 844 845 845 845 845 845 845 845 846 846 846 846 847 847 847 847 847 847 847 847 848 848 848 848
824 824 826 827 828 828 828 829 830 830 830 831 832 832 833 832 831 831 831 831 831 832 832 834 835 836 837 837 837 837 837 837 837 837 836 836 837 838 839 841 842 843 843 844 845 844 843 842 842 842 842 842 842 843 843 843 844 844 844 845 845 846 846 846 846 846 846 846 847 847 848 848 848 848 848 848 848 849 849 849 849 849 849 850 850
824 825 827 828 829 829 829 830 831 831 832 833 834 834 834 833 831 831 832 832 832 832 833 834 836 837 837 837 837 837 837 838 838 838 838 838 839 840 841 842 842 842 842 844 845 846 845 844 843 843 843 843 843 844 844 844 845 845 846 846 846 847 847 847 847 847 848 847 848 848 849 850 849 850 850 850 850 850 850 850 850 850 851 851 851
824 826 827 828 830 830 831 832 832 833 834 835 835 835 836 834 832 833 833 833 833 833 833 835 836 837 837 837 837 837 838 838 839 839 839 840 841 842 842 842 841 842 844 845 845 846 847 845 845 844 844 845 845 845 845 846 846 846 847 847 848 848 848 849 848 848 849 849 849 849 851 851 851 851 851 851 851 852 852 852 852 852 852 853 853
824 827 827 829 830 830 832 832 833 834 834 835 835 835 834 834 833 834 835 835 834 833 834 835 836 836 837 837 837 838 839 839 840 840 841 841 842 843 844 844 844 845 846 846 846 846 847 847 846 846 846 846 846 847 847 847 847 848 848 849 849 849 850 850 849 850 850 850 850 851 852 852 853 853 853 853 853 853 853 853 853 853 854 854 854
825 827 827 829 830 831 832 833 834 834 834 835 836 835 832 832 833 835 836 835 835 834 835 835 836 837 837 838 838 839 840 840 840 841 841 842 842 843 845 846 846 847 847 847 846 846 847 847 847 847 847 847 848 848 848 848 849 849 850 850 850 851 851 851 851 851 851 851 851 852 853 853 854 854 854 854 854 854 854 854 854 855 855 855 855
826 827 829 830 831 831 832 834 835 835 836 837 837 836 833 833 834 835 836 836 835 835 835 836 836 837 838 839 839 840 840 841 841 841 842 843 843 844 845 846 846 847 847 848 847 847 848 848 848 848 848 848 849 849 849 850 850 851 851 851 851 852 852 852 852 852 852 852 852 853 854 855 855 855 855 855 855 855 855 856 856 856 856 856 856
826 828 829 830 832 832 833 835 836 837 837 838 838 837 835 833 835 836 836 836 836 836 836 837 838 839 839 839 840 840 841 841 842 842 843 844 844 844 845 846 846 847 848 848 849 849 849 849 849 849 849 850 850 850 851 851 851 852 852 853 852 852 853 853 854 853 853 853 854 854 855 856 856 856 856 857 856 857 857 857 857 857 857 857 857
827 828 829 831 832 833 835 836 837 838 838 839 839 839 837 835 836 836 836 836 837 838 838 838 839 839 839 840 840 841 842 842 843 843 844 845 845 846 846 847 847 848 848 849 850 850 850 850 850 850 851 851 851 852 852 852 852 853 853 854 853 853 853 854 855 854 854 854 855 856 856 857 856 857 857 857 857 858 858 858 858 857 858 857 858
827 828 830 832 832 835 836 837 838 839 839 840 840 840 838 837 838 836 836 837 838 838 838 839 839 840 840 841 841 842 843 843 844 844 845 846 847 847 847 848 848 849 850 850 851 851 851 851 851 851 852 852 853 853 853 853 853 854 854 855 854 854 854 855 855 855 855 855 856 857 857 857 857 858 858 858 858 859 858 858 858 858 858 858 858
827 829 831 832 833 835 835 838 838 839 841 841 841 840 839 838 839 838 837 838 839 839 839 840 840 841 841 842 843 843 844 844 845 845 846 847 848 849 848 849 849 851 851 852 852 852 852 852 853 853 853 853 853 854 854 854 854 855 855 855 855 854 855 856 856 856 856 856 857 857 857 858 858 859 859 859 859 859 859 859 859 859 859 859 859
828 829 831 832 833 835 836 838 838 840 841 842 842 839 839 840 840 839 839 839 839 839 840 841 841 842 842 843 844 844 845 845 846 846 847 848 849 850 850 851 851 852 853 853 853 853 853 853 854 854 854 854 854 855 854 855 855 855 856 856 855 855 855 857 857 857 857 858 858 858 858 859 859 860 860 860 860 860 859 859 859 859 859 859 859
829 830 832 833 834 835 836 838 839 841 843 844 841 838 840 841 841 840 840 840 839 840 840 841 841 842 843 844 845 846 846 847 848 848 848 849 850 851 852 853 853 854 854 854 854 854 854 854 855 855 855 855 855 855 855 856 856 856 856 856 857 856 856 857 858 858 858 859 859 860 860 860 860 860 860 860 860 860 860 860 860 860 860 860 860
830 832 833 834 835 837 838 840 841 843 845 844 841 838 841 842 841 841 841 841 840 841 841 842 842 843 844 845 846 847 848 848 849 849 850 851 851 852 853 854 854 855 855 855 855 855 856 856 856 856 856 856 856 856 856 857 857 857 857 857 857 857 857 857 859 859 860 860 860 861 861 861 861 861 861 861 861 860 860 860 860 860 860 860 860
832 833 834 835 836 838 839 841 843 846 846 844 841 840 841 842 842 842 843 842 842 842 843 844 844 844 845 846 847 848 849 850 850 851 852 853 853 854 854 855 855 856 856 856 856 856 857 857 857 857 857 858 857 857 857 857 858 858 858 858 858 858 858 858 859 860 860 861 861 862 862 861 861 861 861 861 861 861 861 861 861 861 860 860 860
833 834 836 836 837 838 839 842 845 847 847 844 843 842 843 844 843 843 844 844 844 844 845 845 846 846 847 848 849 850 851 851 852 853 853 854 854 855 855 855 856 856 857 857 857 858 858 858 858 858 858 859 858 858 858 858 858 859 859 859 859 859 858 859 860 860 861 861 862 862 862 862 862 862 862 862 862 861 861 861 861 861 861 860 860
832 835 836 837 837 839 840 842 845 847 848 846 845 844 845 845 844 845 845 845 845 846 846 847 848 848 849 850 851 852 853 853 854 854 855 856 855 856 856 856 857 857 858 858 859 859 859 859 859 859 859 860 859 859 859 859 859 859 859 859 859 859 859 860 860 861 862 862 863 862 862 862 862 862 862 862 862 862 862 862 861 861 861 861 861
833 834 836 838 837 839 840 842 844 846 848 846 846 846 846 846 846 846 846 847 847 848 848 849 850 850 851 852 853 854 854 855 856 856 856 857 857 857 857 858 858 859 859 859 860 860 861 860 860 860 861 861 860 860 860 860 860 860 860 860 859 859 860 861 861 862 862 863 863 863 863 863 863 863 863 863 863 862 862 862 862 861 861 861 861
832 834 836 837 838 839 840 842 843 846 848 847 846 846 848 848 847 847 848 849 849 849 849 850 851 852 853 853 854 855 856 856 857 857 858 858 858 859 859 859 860 860 860 861 861 862 862 861 861 861 861 861 861 861 861 861 861 861 861 860 860 861 862 861 861 862 862 863 863 863 863 863 863 863 863 863 863 862 862 862 862 861 861 861 861
832 833 835 837 838 840 840 842 843 845 848 848 847 846 847 849 849 849 849 851 851 850 850 851 852 853 854 855 856 856 857 857 857 858 859 860 860 860 860 861 861 861 862 862 862 862 862 862 862 862 862 862 862 862 862 862 862 861 861 860 861 862 862 862 862 862 863 863 863 863 863 863 863 862 863 863 863 862 862 861 861 861 861 861 861
832 833 835 837 838 840 841 842 844 845 846 847 847 846 846 848 850 850 851 852 852 852 851 852 853 854 855 856 857 857 858 858 858 859 860 861 861 861 861 861 862 862 862 862 863 863 863 863 863 863 863 862 862 862 862 862 862 861 861 861 862 863 862 862 862 862 863 864 863 863 863 863 862 862 863 862 862 862 862 861 861 861 861 861 861
833 834 836 837 839 840 841 842 844 844 844 844 846 847 846 847 849 851 852 852 854 854 854 854 855 856 856 857 858 859 859 859 860 861 862 863 862 863 862 863 863 863 863 863 864 864 863 864 864 863 863 862 862 862 861 861 861 861 862 862 863 862 862 862 863 863 864 864 863 863 863 863 862 862 862 862 862 862 861 861 861 861 860 860 860
833 835 836 838 839 840 841 842 844 844 844 844 846 848 848 848 849 851 852 853 854 856 856 857 857 857 858 858 859 860 861 861 862 862 863 863 864 864 864 864 864 864 864 864 864 864 863 863 863 863 862 862 863 862 862 861 861 862 863 863 863 863 863 863 863 864 864 864 863 863 863 863 862 862 862 862 862 861 861 861 861 860 860 860 860
833 835 836 839 840 841 842 843 844 844 844 845 846 848 849 850 850 851 852 853 854 856 857 858 858 859 859 860 859 860 861 862 862 862 862 863 864 864 865 865 864 864 864 864 863 863 863 863 863 863 863 863 863 863 862 862 862 862 863 863 863 863 863 863 863 864 864 864 863 863 863 863 863 862 862 862 861 861 861 860 860 860 860 859 859
833 835 837 838 840 841 843 844 845 845 846 847 848 849 850 851 851 852 853 854 854 855 857 858 859 860 861 861 861 861 862 863 863 863 863 863 863 864 864 864 864 864 864 864 864 863 864 863 863 863 863 864 863 863 863 863 863 863 863 864 864 864 864 864 864 864 864 864 864 864 864 863 863 862 862 862 861 861 860 860 860 859 859 859 859
833 835 836 838 840 841 843 844 845 846 847 848 849 850 851 852 852 853 854 854 855 856 857 858 859 860 861 862 862 863 863 863 864 864 864 864 864 864 864 864 865 865 865 865 865 865 865 864 864 864 864 864 863 863 863 863 863 863 864 863 863 864 864 864 864 864 865 865 865 865 864 864 863 863 863 862 862 861 861 860 860 859 859 858 858
833 835 836 838 840 841 843 845 846 847 848 849 850 851 852 853 853 854 854 855 856 856 857 858 860 861 862 862 863 863 863 864 865 865 865 865 865 865 866 866 866 866 866 866 866 866 866 865 865 864 865 865 864 864 863 863 863 863 864 863 863 864 864 864 865 865 865 866 866 866 865 865 864 864 863 863 862 861 861 860 860 859 858 858 858
833 835 837 839 840 842 843 845 846 848 849 850 851 852 853 853 854 855 856 856 857 858 858 859 860 861 862 863 864 864 864 865 865 866 866 866 866 866 867 867 867 867 867 867 867 867 867 867 866 865 865 865 865 864 863 863 863 864 864 863 863 864 864 864 864 864 865 867 867 867 866 866 865 865 864 863 863 862 861 860 860 859 858 858 857
833 835 837 839 840 842 843 845 847 848 849 851 852 853 854 854 855 856 857 857 858 859 859 860 861 862 863 864 864 865 865 866 866 867 867 867 867 867 868 868 868 868 868 868 868 868 867 867 867 866 866 865 865 864 863 863 863 863 863 864 864 864 865 864 864 865 866 868 868 867 867 867 866 866 865 864 864 863 862 861 860 859 858 858 857
833 836 837 838 840 842 844 846 847 849 850 851 852 853 854 855 856 857 858 858 859 859 860 861 862 863 864 864 865 865 866 867 867 867 868 868 868 868 868 868 869 869 869 868 868 868 868 867 867 866 866 866 865 864 863 863 863 863 863 864 864 864 865 864 865 866 867 868 868 868 867 867 867 867 866 865 865 863 862 862 861 860 859 858 857
834 836 838 838 841 843 844 846 848 849 850 852 853 854 855 856 857 857 858 859 859 860 861 862 863 863 864 865 865 866 866 867 867 868 868 868 869 869 869 869 870 869 869 869 868 869 868 868 867 866 866 865 864 864 863 863 863 863 863 863 864 865 864 864 865 866 867 867 868 868 867 868 867 867 866 865 865 864 864 863 861 861 859 858 857
834 836 838 839 841 843 844 846 848 850 851 852 853 854 855 856 857 858 859 859 860 861 862 863 864 864 865 865 866 866 866 867 867 867 868 868 869 869 869 870 870 870 870 870 869 869 869 869 868 867 866 865 865 864 864 864 864 864 865 864 864 865 864 865 866 866 867 868 868 868 868 868 868 868 867 867 866 865 865 864 863 862 860 859 858
835 837 838 840 842 843 845 847 849 851 852 853 854 855 856 856 858 858 859 859 859 860 861 862 863 864 865 866 866 866 867 867 867 868 868 869 869 869 870 870 871 871 871 870 870 870 869 869 869 867 866 865 864 864 864 864 864 865 865 864 865 865 865 866 866 866 868 868 868 868 869 869 869 869 869 869 868 867 866 865 864 863 862 861 859
835 837 839 840 842 844 845 847 849 851 852 854 855 856 857 858 858 859 860 859 860 860 861 862 863 864 865 866 867 867 868 868 868 868 869 869 869 870 870 871 871 871 871 870 870 870 869 869 869 868 868 866 864 863 863 863 863 863 863 863 865 865 865 866 866 867 869 869 868 869 869 870 870 869 869 869 869 869 868 866 865 864 863 862 861
836 837 839 841 842 844 846 847 849 851 853 854 856 857 858 859 859 860 861 860 860 861 861 862 864 865 866 867 867 868 869 869 869 869 869 870 870 870 871 871 871 871 871 871 871 870 869 869 869 869 869 867 865 864 863 862 862 862 862 863 865 866 866 867 868 868 869 869 868 869 869 870 870 869 869 869 869 870 869 867 866 865 865 864 863
836 838 840 841 843 845 846 848 850 851 853 855 856 857 858 859 860 861 861 861 861 862 862 863 864 865 866 867 868 869 869 869 870 870 870 870 870 871 871 871 872 872 871 871 871 871 870 871 871 870 869 868 866 865 865 863 862 862 862 863 865 866 867 868 869 869 870 869 869 870 869 870 870 869 869 869 869 869 869 869 868 867 867 866 866
836 838 840 842 844 846 847 849 850 851 853 855 856 857 858 859 859 860 861 861 862 862 863 863 864 866 867 868 869 869 870 870 870 871 871 871 871 871 872 872 872 872 872 871 871 871 871 871 871 870 869 868 866 865 865 864 863 864 864 865 866 867 867 868 868 869 870 870 870 869 869 869 869 868 868 868 869 869 869 870 870 870 870 868 868
836 838 840 842 844 845 847 849 850 852 853 855 856 857 858 858 858 859 859 861 862 862 863 863 864 866 867 868 869 870 870 870 871 871 871 871 871 872 872 872 872 872 872 871 871 871 871 871 871 871 869 868 867 865 865 865 864 865 865 865 866 866 867 867 867 867 869 868 868 868 868 868 868 868 868 868 869 869 870 870 871 873 873 871 870
836 838 840 842 844 845 847 849 850 852 854 855 856 857 857 858 858 858 858 860 861 861 862 863 864 866 867 868 869 870 870 871 871 872 872 872 872 872 872 872 872 872 872 872 872 872 872 872 872 871 869 868 868 866 867 866 865 864 864 864 865 866 866 866 866 866 866 867 867 867 868 869 868 869 870 870 870 870 870 870 871 872 873 872 871
835 838 839 841 843 845 847 849 850 852 854 855 856 857 858 858 858 858 858 860 861 861 862 863 864 866 867 868 869 870 871 871 872 872 873 873 873 873 873 873 873 873 873 872 872 872 872 872 872 872 870 869 868 868 869 868 866 865 865 865 865 866 867 866 865 865 866 866 867 867 868 869 870 871 872 871 870 870 871 870 869 869 870 870 868
834 836 838 840 842 845 847 848 850 852 854 855 856 858 858 859 859 858 858 860 861 861 862 863 865 866 867 868 869 870 871 872 872 872 873 873 873 873 873 873 873 873 873 873 873 873 873 872 872 872 871 870 868 868 870 870 869 868 868 866 866 872 877 871 865 866 868 867 868 868 868 870 871 871 872 871 869 869 870 870 868 867 866 867 867
833 835 837 839 841 843 846 848 850 851 853 855 856 858 859 860 860 860 860 861 861 862 863 864 865 866 866 867 869 870 871 872 872 873 873 873 873 873 873 873 873 873 873 873 873 873 873 872 872 872 872 871 870 869 870 870 870 870 870 868 871 880 882 873 868 870 869 868 869 869 869 871 871 871 871 870 869 870 870 869 868 867 866 866 866
831 833 835 838 840 843 845 848 849 851 853 854 856 857 859 860 861 861 861 861 862 862 863 863 864 865 865 867 869 870 870 871 872 872 873 873 873 873 873 873 873 874 873 873 873 872 872 872 872 872 872 872 872 870 870 870 870 871 870 870 872 875 874 871 873 874 870 869 869 869 869 869 870 870 870 870 869 870 870 869 869 868 867 866 865
829 832 834 836 839 842 845 847 849 850 852 854 856 857 858 860 860 860 861 861 862 862 863 863 864 864 865 866 869 869 870 871 872 872 872 873 873 873 873 873 873 873 873 873 872 871 871 872 872 873 873 873 873 872 871 871 870 870 870 869 869 869 870 870 873 874 874 873 869 869 869 868 868 869 869 870 870 869 869 869 869 868 867 865 864
827 830 832 835 838 841 844 846 848 850 851 853 855 856 858 859 860 860 861 861 861 863 864 864 865 865 866 867 868 869 870 871 871 872 872 873 873 873 873 873 873 873 873 873 872 871 871 872 873 873 873 873 873 873 873 872 870 870 870 870 869 869 869 869 870 871 874 875 872 870 870 870 869 869 869 869 869 869 869 869 868 866 866 866 865
826 828 831 834 838 841 843 845 847 849 851 853 854 856 857 858 859 860 861 861 861 863 864 865 866 867 867 868 868 869 870 870 871 872 872 873 873 873 873 874 874 873 873 873 873 872 872 873 873 873 873 873 874 873 873 872 871 870 871 871 871 870 869 868 869 868 868 873 876 874 872 871 871 871 870 870 870 870 869 869 868 866 866 865 865
825 828 830 833 837 840 842 845 847 849 850 852 854 856 857 858 859 859 860 861 862 863 864 865 867 867 868 869 869 869 869 870 871 871 872 872 872 873 873 874 873 873 873 873 873 873 873 873 873 873 873 873 874 873 873 873 871 871 872 872 871 870 870 869 868 867 867 870 873 873 873 873 872 872 871 871 871 870 869 868 868 867 866 865 864
824 827 829 832 835 838 841 844 846 848 849 851 854 855 857 858 858 859 860 861 862 863 864 865 866 867 868 868 869 869 869 869 870 871 872 872 872 873 873 873 873 873 873 873 873 873 873 873 873 873 874 874 874 873 873 872 872 872 871 871 870 869 869 869 868 869 868 868 869 871 872 872 871 871 871 871 870 870 869 868 867 867 866 865 865
Wind_Speed
8 8 9 11 13 13 12 12 11 9 9 10 10 10 10 10 10 10 11 11 12 13 11 10 10 11 12 12 11 11 10 11 12 12 14 13 13 15 15 15 15 14 14 15 17 17 17 17 17 17 16 16 16 16 16 16 17 17 17 17 17 18 18 18 18 18 18 19 19 19 19 19 18 18 18 17 17 17 17 17 18 18 18 19 18
10 9 10 11 13 13 12 11 10 8 9 9 9 9 9 10 10 10 9 9 10 10 10 11 11 11 11 12 11 12 12 12 13 13 15 14 13 14 15 16 15 14 15 16 16 17 17 17 17 16 16 15 16 16 16 16 16 17 17 16 17 17 17 18 18 18 18 18 18 18 19 18 18 18 18 17 17 17 16 17 17 17 17 18 18
12 11 11 12 12 12 11 10 9 8 8 8 8 8 9 10 9 9 9 9 9 9 10 11 11 12 12 12 11 13 13 13 13 13 15 14 14 14 15 16 15 14 15 16 16 16 17 16 16 16 16 15 16 16 16 16 16 16 16 16 16 17 17 18 18 18 17 17 17 18 18 18 18 18 18 17 17 17 18 18 17 18 18 18 18
13 11 10 11 10 11 11 10 9 8 8 8 8 8 8 9 8 7 9 10 9 8 9 10 11 11 12 13 12 12 14 14 13 13 14 13 13 15 17 18 15 14 14 15 16 15 16 16 16 16 16 15 16 16 16 16 16 16 16 16 16 16 17 17 18 17 17 17 16 16 16 17 18 18 18 18 18 18 18 18 18 18 18 17 17
13 12 10 10 10 12 12 10 9 9 8 7 8 9 9 9 7 6 8 10 9 7 9 11 10 11 12 12 12 12 13 14 13 13 14 13 13 15 18 18 15 14 15 15 15 15 16 16 16 16 15 15 15 15 15 15 15 16 15 16 16 17 18 18 17 17 17 17 16 15 15 16 17 18 18 18 18 19 18 17 18 18 18 17 17
13 12 11 11 10 11 12 11 10 9 8 8 9 10 11 9 7 7 8 9 9 7 8 11 11 11 11 11 13 13 12 13 13 13 14 14 14 15 16 17 16 15 16 16 16 15 15 15 16 16 15 15 15 15 15 15 16 16 15 16 17 18 18 16 15 15 16 16 16 15 14 15 16 17 17 17 18 17 17 17 17 17 17 17 16
13 12 10 11 10 11 12 11 9 9 9 9 10 12 12 10 7 7 8 9 10 8 8 11 11 12 12 11 11 12 12 12 13 13 13 14 14 15 15 16 16 16 16 16 17 15 14 15 16 15 15 15 15 15 15 15 16 15 15 16 17 18 17 15 14 14 15 15 14 14 14 15 16 17 17 17 16 16 16 16 16 16 16 15 15
13 11 10 11 10 11 12 11 9 9 10 10 10 13 12 9 7 7 9 10 9 8 8 10 11 12 13 12 11 12 11 11 12 12 13 13 14 16 17 16 15 16 16 16 17 17 16 15 16 15 15 15 14 15 15 15 15 15 16 17 17 17 16 15 14 14 14 15 14 13 14 15 16 16 16 16 15 15 15 14 15 15 15 14 14
12 11 11 11 11 12 12 10 10 10 10 10 11 12 10 7 7 7 9 11 9 8 9 10 11 12 13 13 13 12 11 12 13 12 13 12 13 15 17 17 15 15 15 15 16 18 17 16 16 16 16 15 14 14 14 14 15 15 16 16 17 16 16 14 14 13 13 14 15 13 13 14 16 15 14 14 13 14 13 12 14 14 14 13 13
11 10 11 12 12 12 11 10 11 11 10 11 12 11 8 6 6 7 10 11 10 9 9 10 11 12 13 13 13 13 12 12 12 12 13 13 13 15 16 16 15 16 15 15 15 17 17 17 17 16 16 15 14 13 13 14 14 15 15 15 15 15 14 13 13 13 12 14 14 14 14 14 15 16 14 14 13 13 12 11 13 13 13 12 12
12 11 12 13 13 12 11 10 12 12 11 11 12 11 7 5 7 8 9 10 10 11 11 11 12 13 13 13 13 13 13 13 13 13 13 14 14 15 16 15 16 16 15 14 15 16 16 16 16 16 16 15 14 13 13 13 14 14 13 13 15 15 11 10 11 11 13 14 14 14 15 14 15 15 13 13 13 12 12 12 12 12 12 12 11
13 12 13 14 13 12 12 10 12 13 12 12 13 12 8 6 7 8 9 10 11 12 12 12 12 14 14 13 13 13 13 14 14 14 14 14 15 16 16 16 16 16 15 14 14 15 16 15 16 16 15 14 13 13 13 13 13 12 11 11 14 15 11 10 11 11 12 14 14 13 14 15 15 14 13 12 12 11 11 11 11 11 11 10 10
14 14 14 15 14 12 12 11 12 13 13 12 13 11 8 7 8 7 8 10 11 12 13 13 14 14 14 13 13 13 14 14 14 14 15 15 16 16 16 17 17 15 15 14 14 15 15 15 15 15 15 14 13 12 12 12 12 11 11 10 13 15 12 10 10 11 12 13 14 13 14 15 14 13 12 11 11 11 10 10 10 10 10 9 9
14 14 15 15 14 13 12 12 12 13 13 12 12 10 8 8 9 8 8 10 12 13 14 14 14 14 14 14 13 14 14 15 14 14 15 16 17 17 16 17 17 15 14 14 14 14 14 14 14 14 14 14 13 12 12 11 11 10 11 12 13 13 11 9 10 11 11 12 13 13 14 14 13 12 11 10 10 9 9 9 8 8 9 8 8
13 15 15 15 14 13 13 12 12 14 13 13 12 11 9 9 10 10 10 12 13 13 14 15 15 14 14 14 14 14 15 16 16 16 16 17 18 17 16 16 16 15 14 14 14 13 13 13 13 13 13 13 12 11 11 11 11 11 11 11 12 12 9 8 9 10 11 11 12 13 14 13 12 11 10 9 8 8 8 9 9 9 8 8 8
13 14 15 15 14 13 13 12 13 15 15 14 13 11 10 11 12 11 13 14 14 14 15 16 16 15 15 16 15 15 15 16 17 17 17 16 17 17 16 16 15 15 14 14 14 13 13 13 13 12 13 13 13 12 12 12 11 11 11 11 12 13 12 10 9 10 10 11 11 12 13 12 11 10 9 9 9 9 8 9 10 9 8 8 8
14 15 15 13 13 13 13 13 14 16 16 15 13 11 12 12 12 12 15 15 14 15 16 17 17 17 17 17 17 17 16 17 17 16 16 16 16 16 16 16 15 15 15 15 14 13 13 13 13 14 14 14 14 14 13 13 12 11 11 12 13 12 11 9 9 10 9 10 11 11 11 10 10 10 9 10 9 8 8 9 8 8 7 7 7
15 14 14 12 13 12 13 15 15 17 17 14 13 12 12 12 12 13 15 16 16 16 17 18 19 19 19 18 18 18 18 18 17 17 16 16 16 16 16 15 15 15 15 15 14 13 13 13 13 14 14 13 14 14 14 13 12 12 13 14 14 12 11 9 9 10 9 10 10 10 10 10 10 10 9 9 9 8 8 8 7 7 6 5 5
17 14 12 11 12 12 13 15 16 18 16 15 14 12 12 13 13 14 16 17 17 18 18 19 19 19 19 19 19 19 18 18 18 17 17 16 16 15 15 15 14 14 14 14 14 13 13 12 13 13 13 13 13 14 13 13 12 13 14 15 14 12 12 10 9 9 9 9 10 9 9 9 9 9 8 8 8 7 7 7 7 6 5 5 5
17 15 12 11 12 12 12 13 15 18 17 15 15 13 13 14 14 15 17 18 18 18 19 19 20 20 20 20 19 19 19 18 18 17 16 16 16 15 15 15 16 15 15 15 14 13 12 12 13 13 13 13 13 12 12 12 12 13 13 12 11 9 8 8 8 9 8 8 9 8 7 7 7 7 6 6 6 5 6 6 6 5 5 5 4
14 15 14 13 13 11 11 13 15 19 19 16 16 16 15 15 16 17 18 19 19 19 18 19 20 20 19 19 18 18 18 17 16 16 16 16 17 16 15 16 17 17 16 16 15 14 13 13 13 13 13 13 12 11 11 11 12 13 12 11 10 8 5 6 8 8 8 8 8 7 6 6 6 6 5 5 5 4 5 5 3 4 4 4 3
11 12 13 13 12 11 10 13 17 20 20 17 14 15 16 16 17 17 19 20 20 19 17 17 18 18 17 17 16 15 16 16 14 15 15 15 16 15 14 16 16 17 16 16 15 13 13 13 12 12 11 11 10 8 7 9 10 11 11 10 8 5 5 6 7 7 7 8 7 5 5 5 5 5 4 4 3 3 3 3 2 3 2 3 3
11 10 11 11 11 11 10 11 16 17 18 17 15 14 16 17 15 16 18 18 19 18 17 17 17 15 14 14 15 15 14 14 14 14 15 14 15 14 14 14 15 15 15 14 14 13 13 12 11 10 9 8 7 4 4 4 4 7 8 8 5 5 5 5 6 7 7 7 5 4 5 4 4 4 3 2 2 2 3 2 2 2 2 2 3
10 11 10 10 10 10 10 11 12 14 15 17 18 16 15 16 17 17 16 16 18 18 17 18 16 13 13 13 15 16 15 16 16 15 14 14 13 13 14 14 14 14 13 13 12 11 11 8 7 7 5 4 4 4 4 4 3 3 5 6 5 5 5 4 6 6 6 6 3 3 3 3 2 2 2 1 1 1 2 2 2 2 2 3 4
10 10 10 10 11 10 10 11 10 11 12 13 16 16 14 14 16 17 16 16 18 18 18 18 15 13 12 14 16 17 17 16 15 13 12 12 12 11 12 13 14 12 11 10 8 6 6 3 3 3 1 3 3 4 4 4 4 5 5 6 5 4 5 5 5 5 6 4 3 3 2 2 1 1 2 1 1 0 2 2 2 2 2 3 3
10 10 11 11 10 10 10 11 10 9 10 12 14 14 13 12 13 15 16 16 16 17 18 17 14 13 13 13 14 14 14 13 12 11 11 11 11 10 10 9 10 9 7 7 5 3 4 3 2 2 1 3 4 4 4 5 6 7 6 5 4 4 5 5 5 4 5 3 3 2 1 1 0 1 2 2 1 1 2 1 2 2 2 2 3
10 10 11 11 11 11 10 11 11 10 10 13 13 12 13 13 12 12 14 15 14 15 15 15 14 13 13 13 13 12 11 12 11 11 11 10 10 10 9 7 7 7 5 5 3 2 3 3 2 3 2 4 6 5 4 5 6 7 6 4 4 4 4 4 4 3 5 3 4 3 2 2 2 1 2 2 1 1 1 1 1 2 2 2 4
11 11 11 11 11 11 11 11 11 10 11 12 12 13 13 13 12 12 12 13 13 13 14 13 13 12 12 14 14 13 12 12 12 11 11 10 9 9 8 6 6 6 5 4 4 4 3 4 4 4 4 4 5 6 6 6 5 6 6 5 4 4 3 4 4 3 4 4 3 4 3 4 4 3 3 3 2 2 1 1 1 1 1 2 3
11 11 11 11 11 11 11 11 11 11 11 12 12 13 13 13 12 12 11 11 12 13 13 12 12 11 11 12 14 13 13 12 12 10 10 9 8 8 7 6 6 6 5 5 5 4 4 4 4 4 4 4 4 4 5 6 6 6 5 5 6 5 4 4 4 3 4 5 4 5 6 7 7 7 6 6 5 4 4 4 3 2 2 2 2
11 11 11 11 11 11 11 12 12 11 11 12 12 12 12 12 12 12 11 11 12 12 12 12 11 11 10 10 12 12 12 12 12 11 10 9 8 8 8 7 7 6 6 5 4 4 4 4 3 4 4 3 3 2 3 5 6 5 4 4 5 5 5 4 4 4 5 6 5 6 8 8 8 8 8 7 6 6 5 5 4 3 3 3 4
11 11 11 11 11 11 11 12 11 10 11 12 12 12 12 12 12 12 12 12 12 11 11 12 11 11 11 10 10 10 12 12 11 11 9 8 8 8 8 7 7 6 5 5 4 4 4 4 4 4 3 3 2 2 3 5 6 5 4 4 4 5 4 3 4 6 6 5 5 5 7 8 8 7 7 7 6 6 5 5 4 4 4 5 5
11 11 11 11 12 11 12 11 11 10 11 12 12 12 12 11 11 12 12 11 11 11 11 12 12 12 11 9 8 9 11 11 10 9 8 8 7 7 7 7 6 5 5 5 5 4 3 4 3 3 2 2 2 2 2 4 5 5 5 5 4 4 3 1 4 6 7 6 3 3 3 5 7 7 6 6 5 5 5 5 5 5 5 5 6
11 12 11 12 12 12 12 11 11 10 10 12 11 12 12 11 12 12 11 11 11 12 12 12 12 11 9 8 9 9 9 9 8 7 7 7 7 7 7 7 6 5 4 4 4 4 4 4 3 3 2 2 2 2 3 5 4 4 6 5 4 4 3 3 5 5 5 6 4 3 3 1 3 5 6 6 6 5 5 5 5 5 6 6 7
12 12 12 13 12 11 11 11 11 10 10 10 10 11 11 11 12 12 11 11 11 12 12 12 11 10 9 8 8 8 8 8 7 5 6 7 7 6 7 6 5 4 4 3 4 5 5 4 3 3 1 1 3 1 3 6 4 3 4 4 4 3 2 4 5 4 4 5 4 2 2 2 1 3 3 4 6 6 5 5 5 6 6 7 7
12 12 12 12 12 11 11 12 11 10 10 10 9 9 10 10 11 11 10 10 11 12 12 12 11 10 9 8 7 7 7 7 6 4 5 6 6 6 6 6 4 4 4 4 4 4 4 4 4 4 3 2 4 3 4 4 3 4 3 3 5 2 3 5 3 5 6 4 3 2 3 3 3 3 4 4 5 7 6 5 5 7 7 8 8
13 13 13 12 12 11 11 12 12 11 10 9 9 8 8 9 9 10 9 9 10 11 11 10 10 10 9 8 7 7 6 6 5 4 4 5 6 6 6 5 3 3 3 4 4 3 4 4 5 5 5 5 1 5 5 3 4 5 3 3 4 2 4 4 1 6 7 4 3 2 3 4 3 3 4 2 3 6 7 6 5 7 7 8 9
13 14 13 12 13 12 11 13 12 12 11 10 10 8 8 8 9 9 8 7 8 9 9 9 9 9 8 8 7 6 6 5 5 3 3 5 5 5 6 5 3 3 2 2 3 3 3 4 4 5 3 5 2 4 4 4 5 4 4 4 4 2 3 3 4 8 6 3 3 2 2 4 3 4 4 4 4 5 6 7 6 6 8 8 9
13 14 13 13 13 12 11 13 13 12 11 10 9 9 9 8 8 9 7 7 8 8 8 8 9 8 8 8 7 7 6 6 6 3 3 5 5 5 5 4 3 2 1 1 3 3 3 4 4 4 3 4 4 4 2 2 3 3 4 5 4 2 4 5 4 5 5 5 5 3 5 5 5 6 5 3 4 5 6 8 6 4 8 11 11
13 14 13 13 13 12 11 12 12 12 11 10 9 9 9 8 9 9 7 7 7 8 8 8 9 8 9 9 7 7 7 6 6 3 2 4 5 4 4 3 3 2 0 1 3 3 3 3 3 3 3 3 3 4 2 2 2 3 5 6 4 3 4 5 3 4 5 7 5 3 4 4 2 4 6 4 3 7 8 9 7 3 7 11 11
14 14 14 13 13 13 12 12 11 11 11 9 8 8 9 8 9 10 9 8 7 8 7 8 9 8 9 9 8 7 7 6 6 4 2 2 4 4 4 3 3 2 0 0 2 2 2 2 3 4 4 2 2 2 1 2 3 4 3 5 5 4 5 3 3 5 6 7 5 1 2 5 4 3 7 8 5 8 9 9 9 7 7 8 10
15 15 14 14 13 13 13 12 11 11 11 10 9 8 8 8 8 9 9 9 8 8 8 7 9 9 9 9 8 7 7 6 5 4 3 2 2 3 4 2 2 2 0 1 1 2 2 2 2 4 4 2 3 2 2 3 3 4 2 5 6 5 6 4 3 4 7 8 7 4 3 4 6 5 7 8 6 8 9 10 11 10 11 9 9
16 16 15 14 14 13 13 13 11 11 10 9 8 7 8 7 7 7 8 9 9 8 8 7 8 9 9 8 7 7 6 5 4 3 3 3 2 2 3 2 1 2 1 0 1 1 1 2 2 2 4 2 4 4 4 5 1 4 3 5 6 4 4 3 3 4 7 8 6 5 4 4 6 6 5 7 8 8 8 11 11 10 12 11 9
16 16 15 15 14 13 13 13 11 11 10 9 8 7 7 6 4 4 6 9 9 7 8 8 8 9 10 8 7 7 6 5 5 4 3 3 2 2 3 2 1 1 1 1 1 1 1 2 1 0 3 3 2 5 5 6 5 1 2 3 4 3 2 3 2 3 6 7 5 4 6 7 5 4 5 6 7 6 5 7 9 8 9 9 6
16 16 16 16 15 14 14 13 12 11 10 10 9 8 7 4 2 2 3 7 8 7 8 8 9 9 10 8 8 8 7 6 5 4 4 3 2 2 2 2 2 1 1 1 1 2 2 1 1 2 2 6 1 5 4 5 6 4 1 1 3 4 2 1 3 6 7 5 6 6 8 10 5 3 6 6 5 5 5 6 7 7 7 6 6
17 16 17 16 15 15 15 14 13 12 11 11 9 8 7 5 4 2 3 5 6 7 8 8 8 9 9 9 9 9 7 6 6 4 4 3 2 2 1 2 2 2 2 2 2 2 2 1 2 1 1 4 3 3 4 4 4 4 3 3 4 4 0 2 3 5 6 5 5 5 6 8 5 3 3 3 5 6 4 6 7 6 6 5 6
17 17 17 16 15 16 16 15 14 13 12 12 11 9 8 7 6 6 5 5 5 6 7 8 8 8 9 9 9 9 8 7 6 5 4 4 3 2 2 2 2 2 3 2 2 2 2 2 2 1 2 4 4 2 3 4 4 2 3 2 1 1 1 2 2 2 2 4 3 2 2 5 5 3 2 3 6 7 4 5 5 4 4 5 5
17 17 17 16 16 17 17 15 14 13 13 14 13 10 9 8 7 7 7 6 7 6 4 6 7 6 7 9 8 9 8 7 7 6 4 4 3 3 2 2 2 3 3 2 3 3 2 2 2 2 2 3 3 5 4 2 3 2 2 2 2 1 2 2 2 1 1 1 1 1 2 4 4 3 3 4 5 5 3 2 2 2 4 7 6
18 17 17 17 16 17 17 16 15 14 14 14 14 12 9 8 7 6 6 6 6 6 3 4 6 4 6 8 7 8 8 6 6 6 5 5 3 3 2 2 2 2 3 3 3 2 1 2 2 2 2 2 2 3 4 3 1 2 2 2 1 0 1 1 3 3 2 1 0 1 3 5 6 4 3 3 4 3 1 0 1 1 2 5 6
18 18 17 17 17 17 17 16 15 14 14 15 15 13 10 9 8 7 7 5 5 8 6 5 5 5 6 6 5 7 8 6 6 6 6 5 4 3 3 3 3 2 3 3 2 1 1 1 1 1 0 1 1 2 2 4 4 3 3 2 3 2 2 1 2 3 2 3 1 2 1 2 2 1 2 3 3 2 2 2 2 1 1 2 4
17 17 17 18 18 18 17 17 16 15 15 16 15 14 11 10 9 8 7 6 6 7 7 6 6 6 6 5 5 6 7 7 7 6 6 5 5 4 4 3 3 3 2 1 1 2 2 2 2 1 0 1 1 2 1 3 3 3 1 1 2 3 2 2 2 2 1 2 2 2 3 2 3 3 0 2 3 2 3 5 3 2 2 3 4
16 17 17 17 18 18 18 17 16 15 15 16 16 15 13 11 10 8 8 7 7 7 6 6 7 6 6 6 5 5 6 6 7 6 6 6 5 5 5 4 3 2 1 1 2 3 3 3 3 1 1 1 1 2 3 3 1 2 3 2 3 3 2 3 2 1 2 3 2 2 3 2 2 3 2 3 1 2 2 3 3 2 4 5 6
Wind_Direction
111 115 125 128 120 114 105 95 89 91 88 85 86 86 85 83 82 78 78 79 83 91 103 110 110 111 115 123 129 130 127 120 113 108 107 112 116 113 113 112 110 110 108 107 106 105 103 102 101 99 97 98 98 96 94 92 90 90 89 90 91 90 89 88 87 87 86 85 84 83 81 79 76 79 82 82 84 86 84 85 86 85 86 89 89
125 124 127 132 124 115 103 95 93 94 90 86 87 87 89 88 86 86 87 87 91 102 115 119 117 118 121 124 124 126 126 119 112 108 111 117 119 116 117 117 116 115 112 108 106 105 104 103 102 100 99 98 100 100 96 93 91 91 91 91 92 92 91 90 88 86 85 86 85 84 81 79 77 78 81 84 85 86 87 87 87 86 86 88 88
127 126 130 136 127 113 99 94 95 91 92 90 92 94 96 94 96 107 113 110 109 112 118 121 120 120 125 132 130 127 124 116 114 111 113 117 121 121 120 121 119 115 111 108 106 105 105 104 103 103 100 98 99 100 99 95 93 92 92 93 94 96 95 93 89 87 87 84 82 82 80 79 78 79 82 85 86 85 87 88 87 89 88 87 87
126 126 130 132 123 110 102 101 100 92 91 90 93 92 92 97 108 122 124 119 113 110 110 109 114 122 128 136 134 125 119 116 116 115 113 115 120 121 122 122 115 109 106 103 103 103 105 106 105 104 101 99 98 99 100 98 95 94 92 93 95 98 97 93 89 86 86 86 83 81 79 79 80 81 84 85 86 86 86 87 88 90 90 88 88
125 125 125 123 116 109 106 106 100 93 92 90 92 89 91 99 113 121 120 117 111 111 114 111 118 128 128 130 128 118 115 117 116 115 115 115 117 118 121 119 109 108 107 104 103 103 106 106 105 103 102 100 98 98 98 98 98 97 95 96 98 99 97 94 91 87 87 87 83 82 81 81 81 80 83 85 87 88 88 88 89 89 88 88 88
125 124 124 120 115 113 111 107 97 95 94 92 93 90 87 92 104 110 116 121 120 128 129 125 123 125 125 125 125 120 115 116 115 113 113 116 119 119 120 117 112 114 113 113 110 106 106 104 104 103 101 101 99 98 97 96 97 99 99 100 102 102 100 96 93 91 93 89 83 81 84 84 83 81 82 84 85 87 88 88 88 87 86 86 87
123 121 121 118 118 120 114 107 102 101 98 93 93 93 90 96 107 106 114 123 132 146 145 132 121 118 123 126 125 121 119 117 115 113 114 117 120 121 120 117 118 119 116 115 112 106 102 99 99 99 99 99 100 99 97 97 97 99 100 102 104 103 100 91 86 86 87 91 88 82 86 89 85 82 82 84 85 86 86 86 87 87 86 85 86
120 119 117 115 116 116 106 104 105 99 96 97 96 98 99 107 109 102 112 116 126 143 141 126 115 116 120 125 124 118 119 118 115 115 118 119 123 125 122 120 122 122 118 114 110 106 101 98 96 96 96 97 99 99 98 99 98 98 99 101 103 103 98 90 87 85 83 90 93 83 86 91 87 83 82 82 84 86 84 83 87 87 86 84 84
120 119 117 113 112 109 101 102 101 94 92 92 90 90 96 107 108 104 108 109 116 128 125 112 108 112 114 120 123 121 121 118 115 115 118 119 120 121 120 120 121 119 114 109 106 106 103 98 96 96 97 97 98 99 100 100 100 101 101 103 103 100 93 87 86 89 88 88 91 90 88 87 86 83 80 81 82 85 84 82 86 86 85 84 84
126 122 116 110 112 108 103 102 98 99 97 94 92 87 90 105 106 102 106 111 115 115 110 104 107 111 112 117 121 122 121 117 115 115 117 116 112 112 113 115 117 115 109 104 103 104 102 98 97 96 96 97 98 99 101 102 104 105 105 106 103 96 85 81 84 89 91 87 88 91 90 86 85 84 81 82 81 84 85 83 84 84 84 82 82
126 123 115 112 116 111 106 103 100 104 102 100 97 95 100 107 101 98 108 113 105 101 103 102 108 115 117 118 120 121 118 116 116 115 115 114 112 112 111 110 112 111 107 102 100 102 101 99 99 98 97 96 97 98 100 103 105 106 107 106 103 97 89 87 89 90 92 91 90 89 88 87 85 85 83 82 82 81 82 82 81 81 81 80 80
128 124 115 115 117 112 109 106 104 104 100 97 98 104 115 117 108 106 110 107 97 98 105 106 110 116 118 118 119 119 117 117 117 116 114 114 113 113 112 109 106 105 105 102 101 102 100 99 100 99 99 97 97 98 100 103 104 104 104 103 102 99 95 95 93 89 90 91 92 89 87 85 85 85 82 81 80 80 80 81 80 80 80 78 79
130 123 119 118 117 115 114 109 105 104 101 99 103 109 119 120 109 111 114 106 102 105 109 113 114 115 117 117 116 116 119 118 117 117 115 113 112 112 113 109 105 104 105 105 104 103 100 98 99 100 99 97 95 97 100 102 104 104 102 100 98 95 90 91 93 90 88 88 89 89 86 84 84 83 81 80 79 78 78 78 78 78 78 77 77
126 120 120 119 117 119 116 111 109 105 104 104 106 113 123 118 106 111 116 105 103 107 111 114 115 114 115 117 116 117 120 118 115 114 113 112 109 109 108 105 104 105 105 105 105 104 103 101 100 100 98 95 93 95 99 102 104 102 103 103 99 96 93 88 89 90 88 88 88 87 86 86 85 83 81 79 78 76 74 75 78 81 80 77 75
122 118 117 117 117 119 117 115 114 109 108 107 108 119 125 114 103 107 108 101 103 109 111 113 114 112 113 116 117 115 115 116 114 112 110 108 107 107 106 105 105 106 105 105 105 104 105 104 104 102 98 95 94 93 96 101 105 102 103 104 101 98 95 89 86 87 87 88 89 88 87 87 87 84 83 78 74 72 70 71 72 76 78 74 73
117 116 116 117 119 119 118 118 116 113 111 108 111 120 118 110 104 102 102 102 105 107 106 108 111 112 113 114 112 109 111 113 112 110 109 106 106 108 108 107 107 106 106 104 103 105 107 107 106 102 98 95 93 92 95 101 103 101 99 99 104 102 99 97 90 86 85 86 87 88 88 88 86 83 79 72 69 69 68 71 72 71 72 70 68
116 116 118 121 122 120 119 119 113 108 107 109 117 115 107 104 103 101 101 103 103 104 105 107 109 112 113 112 110 109 111 111 109 108 106 105 105 106 107 107 108 108 107 105 103 106 108 107 105 101 98 96 95 94 96 97 99 98 95 98 104 104 101 97 91 87 86 88 86 86 90 90 85 81 75 69 70 71 69 72 74 72 69 69 68
120 119 123 123 122 124 124 120 111 106 107 111 116 109 103 100 98 101 103 107 108 106 108 108 109 111 112 112 111 110 110 109 108 107 105 105 105 108 109 108 109 109 107 106 106 110 111 110 107 103 101 100 98 97 96 96 96 93 91 95 95 92 87 84 90 90 86 87 87 86 89 90 86 81 77 73 71 70 69 70 74 72 67 63 57
122 121 123 124 124 125 123 121 115 113 113 111 111 105 103 101 98 102 105 108 110 109 109 109 111 112 112 112 111 109 108 108 108 108 106 106 108 113 112 108 109 108 108 109 111 114 115 114 109 105 102 100 99 98 97 96 95 94 93 93 91 86 79 79 89 89 83 82 86 89 88 88 88 86 82 77 71 71 69 67 72 68 62 57 44
122 123 123 121 127 128 122 121 117 114 116 114 113 111 108 106 104 103 106 109 110 111 112 111 112 112 112 111 109 108 107 107 108 109 109 110 111 113 111 109 109 108 110 111 112 113 113 112 108 106 101 98 97 97 98 97 95 93 93 90 81 68 65 79 86 83 83 85 89 93 93 93 92 88 85 79 74 71 65 61 62 52 45 44 33
123 128 128 121 124 127 121 123 122 118 120 119 115 115 111 105 104 106 109 110 111 113 112 112 113 113 113 110 106 105 107 109 110 112 112 112 111 111 110 110 111 111 111 111 111 110 111 111 110 108 103 98 92 91 92 91 94 92 88 84 75 58 60 81 83 88 92 93 94 96 98 99 97 91 88 84 78 69 61 64 58 39 37 31 21
126 127 127 123 121 124 122 124 124 120 122 125 119 115 114 110 105 108 113 113 113 114 113 114 114 115 115 110 107 107 111 112 112 114 113 112 111 113 111 110 113 113 112 111 109 107 108 110 109 106 103 96 87 88 91 85 87 88 81 74 73 72 79 81 84 92 92 97 96 92 98 100 102 97 87 78 74 74 63 69 57 35 30 12 4
128 123 121 120 117 121 123 120 121 120 123 130 129 113 108 114 116 113 114 115 114 115 116 117 116 116 117 113 112 112 112 113 116 117 116 115 114 115 112 112 115 114 112 106 100 99 101 102 102 100 96 91 92 113 124 117 89 75 78 75 77 89 88 86 94 91 88 99 96 81 91 94 102 98 92 72 55 59 37 42 45 19 3 347 339
128 124 120 117 117 120 118 115 118 123 126 130 133 122 102 106 121 121 115 116 116 117 120 119 117 117 116 114 114 116 116 116 116 114 115 115 114 113 111 113 113 111 108 98 90 91 95 94 91 92 98 110 145 155 136 160 154 74 89 93 90 99 96 89 93 94 96 100 74 61 87 87 97 102 107 98 61 45 354 6 9 341 316 316 319
127 123 121 121 121 121 117 115 115 120 124 122 124 124 110 102 115 119 115 116 119 122 122 118 117 118 116 113 113 117 120 120 117 116 120 122 122 117 113 112 109 106 106 102 98 97 98 98 89 85 149 180 167 147 118 122 116 90 90 91 90 104 100 92 91 93 105 105 18 32 87 87 99 129 137 131 87 288 318 347 350 329 299 297 299
128 124 123 123 123 120 117 117 115 115 115 111 110 115 116 109 110 115 114 115 119 122 123 120 119 120 119 117 115 117 121 122 123 126 128 130 133 130 127 122 112 107 107 106 106 119 121 126 131 93 178 145 101 88 91 88 91 86 83 88 93 96 94 97 100 92 104 106 9 23 80 74 86 217 168 179 208 232 283 315 337 313 302 316 297
127 126 125 125 125 121 118 117 117 117 110 108 112 114 115 114 111 112 112 115 119 121 122 121 120 122 126 127 125 125 125 125 129 134 132 133 135 133 134 129 113 103 103 105 93 125 134 109 100 85 64 94 99 96 87 84 92 92 90 95 95 94 96 96 99 97 110 104 12 21 62 62 73 97 147 163 174 185 257 285 315 300 293 317 296
127 129 128 128 127 122 121 120 118 118 113 111 115 114 113 115 115 113 112 117 120 119 120 119 121 126 130 132 130 130 131 128 132 137 134 131 129 129 127 121 111 102 100 102 87 81 85 72 67 71 61 70 102 110 101 99 100 97 100 104 101 95 93 90 99 107 117 124 30 26 60 71 79 88 97 100 100 101 84 64 30 339 313 310 291
130 130 127 127 126 124 124 123 120 118 117 116 113 113 114 115 116 114 113 117 117 117 119 120 122 124 126 131 130 129 129 126 126 126 124 122 120 118 114 109 106 103 100 93 87 80 71 72 67 70 71 64 89 106 115 119 110 105 110 118 117 104 93 93 105 106 98 115 89 51 70 79 77 81 82 81 83 82 79 75 64 53 35 5 337
131 129 127 126 127 127 125 121 120 119 117 115 113 113 115 115 115 114 113 116 116 119 122 122 123 121 117 120 121 124 124 123 121 119 118 118 116 113 109 107 102 101 102 92 85 82 75 72 64 70 72 67 85 95 104 113 107 104 108 115 114 103 106 112 114 119 108 112 106 67 64 73 73 75 76 77 78 76 74 69 62 50 36 28 16
132 129 125 128 130 127 122 120 118 117 116 114 114 114 113 113 114 115 116 117 118 121 123 122 121 119 114 109 113 121 121 120 121 121 122 121 119 117 113 109 103 99 97 90 77 67 69 71 65 62 64 70 81 86 100 110 110 112 114 110 109 106 117 143 132 116 102 97 109 89 61 61 64 66 68 71 71 68 64 56 47 38 28 21 12
135 130 129 132 132 127 122 121 118 116 118 116 116 116 114 115 114 115 118 119 121 122 120 118 119 119 115 108 105 111 115 116 120 121 122 121 118 114 111 107 102 96 86 79 70 60 65 76 71 49 50 79 91 113 122 110 111 121 122 111 108 111 100 102 105 99 95 90 102 123 83 50 47 51 56 57 57 57 53 45 36 27 20 14 8
135 131 137 136 130 127 125 122 119 119 120 119 119 120 120 121 119 119 122 122 123 121 119 117 118 119 115 109 105 107 112 115 118 118 116 114 113 112 111 107 100 90 77 64 58 52 54 64 73 68 61 93 106 150 133 108 107 116 119 118 105 104 108 92 91 95 106 106 98 103 111 69 13 25 44 43 36 39 37 32 25 19 17 9 7
135 138 141 135 130 131 131 126 125 123 119 118 119 122 123 122 122 124 127 126 125 122 122 123 123 123 119 116 114 113 114 115 117 115 114 113 110 111 109 105 101 90 77 63 61 56 54 52 52 56 15 110 98 83 106 109 108 86 88 105 99 97 113 86 85 91 83 91 94 80 92 91 344 314 339 19 21 22 23 23 21 14 15 15 16
140 144 140 135 133 136 135 129 129 126 121 120 119 120 120 121 123 126 128 129 129 128 129 131 131 130 127 125 120 115 112 114 114 104 112 119 114 112 108 106 103 89 80 70 70 62 58 52 33 29 358 18 98 94 87 97 103 94 72 80 90 83 91 83 92 109 88 82 87 64 53 41 26 342 323 332 1 14 19 15 18 17 21 25 20
146 144 140 141 137 136 137 133 134 131 128 124 120 117 114 118 120 123 129 131 133 132 133 134 133 133 130 128 123 120 115 115 120 112 116 122 117 117 115 115 104 92 91 76 76 62 62 60 31 40 20 339 105 123 108 107 108 116 145 123 98 58 95 103 95 95 83 71 79 64 78 76 47 6 2 4 343 3 21 15 12 19 22 23 16
148 145 145 147 140 140 143 139 139 136 132 129 125 122 118 121 124 128 134 135 133 132 133 133 132 133 131 130 131 130 127 128 133 128 125 126 123 125 125 125 113 103 96 73 85 64 57 62 33 39 16 328 343 113 123 141 137 140 149 122 103 65 80 79 56 86 88 66 71 34 79 89 39 348 0 48 26 354 8 14 12 25 25 14 13
150 150 150 150 144 145 146 141 141 140 136 133 133 130 129 131 131 133 137 140 139 135 137 138 135 134 132 137 139 139 141 143 146 135 120 127 125 123 127 131 120 110 149 92 92 66 44 55 45 32 7 343 8 55 73 121 137 137 122 106 105 84 82 90 78 101 114 104 102 74 48 42 34 31 17 35 55 19 357 357 350 11 28 17 13
152 153 150 150 147 146 143 140 145 144 138 138 139 136 137 141 137 136 138 144 141 137 146 145 142 142 136 140 144 145 147 148 150 140 116 131 131 126 130 144 134 117 199 149 98 74 49 37 31 7 358 347 4 43 35 353 45 72 87 97 101 85 81 102 116 105 103 104 109 100 64 43 56 78 36 14 51 44 20 356 341 341 22 17 18
152 152 151 152 151 150 146 147 151 147 144 146 147 145 145 148 145 145 147 150 144 144 156 148 145 150 142 145 148 146 149 148 149 144 124 126 128 133 142 153 141 130 293 109 89 71 53 21 17 353 348 338 346 62 45 352 67 67 67 98 104 113 104 117 156 128 122 120 105 113 127 74 61 78 49 41 34 34 24 5 4 4 359 3 17
154 154 156 156 156 156 152 154 155 151 153 153 154 155 152 153 154 155 154 154 151 152 159 151 144 141 137 144 147 145 149 149 150 146 135 125 117 134 150 167 141 134 44 23 47 44 17 349 17 344 332 356 5 47 51 10 104 122 128 129 124 135 131 142 194 155 139 138 126 119 137 92 81 79 53 51 36 24 25 23 26 11 354 1 11
159 160 161 160 161 161 157 160 159 156 160 155 157 159 153 159 162 164 157 149 155 158 156 152 140 133 137 144 144 146 149 149 154 146 144 153 147 143 156 179 131 131 170 253 329 358 350 345 11 328 317 357 29 52 48 3 303 155 140 141 134 136 136 140 204 166 135 136 137 126 134 126 95 84 65 70 55 37 37 37 40 23 6 15 17
163 165 164 162 163 163 160 164 163 161 161 154 159 158 154 163 162 167 155 145 157 161 147 140 138 142 149 147 143 150 153 153 157 153 157 164 163 169 174 179 160 157 197 222 284 303 306 316 356 28 314 303 42 79 59 18 7 67 138 171 137 107 117 127 130 110 104 120 120 91 112 110 80 73 83 82 59 47 64 56 60 57 30 22 22
167 168 167 166 166 165 162 165 165 164 162 154 158 156 151 150 123 113 107 126 145 145 136 139 146 152 153 151 150 156 161 161 159 161 165 157 165 196 183 171 183 189 179 213 254 243 242 259 76 76 320 298 323 93 79 44 30 18 335 228 91 62 36 108 91 58 47 89 100 61 89 96 69 65 73 69 70 77 80 60 64 71 49 26 20
170 171 171 170 168 166 164 166 166 167 163 158 158 153 151 152 144 133 99 117 138 142 149 152 151 155 157 157 157 161 165 161 161 167 164 155 170 197 192 179 188 201 194 204 225 221 229 179 107 92 339 329 339 94 105 97 64 29 15 26 63 76 11 337 34 57 45 56 80 66 87 93 77 70 72 85 93 84 65 45 48 52 46 32 18
173 173 174 173 169 166 165 166 167 169 165 162 162 156 158 164 166 168 155 150 152 157 169 161 158 169 162 153 157 162 164 162 165 168 160 159 171 176 193 207 190 205 216 225 234 213 205 160 101 32 29 24 352 5 78 107 110 86 74 81 67 42 98 74 26 51 57 39 68 91 93 110 121 128 147 140 81 59 40 45 41 22 17 20 17
174 174 174 172 167 164 166 168 168 170 167 165 167 165 166 170 176 173 162 167 163 162 176 152 154 171 150 145 157 163 166 170 170 164 160 163 174 178 187 220 212 207 214 225 244 224 164 117 81 41 28 44 10 354 0 51 111 121 102 141 207 353 37 95 107 154 107 53 154 186 37 72 83 80 104 115 92 63 23 44 53 347 343 356 6
174 174 172 169 166 164 167 169 169 171 170 169 171 172 170 170 180 174 166 182 162 146 162 136 139 154 142 151 161 160 170 176 166 165 173 171 174 186 187 222 235 218 216 214 237 257 91 84 82 74 32 26 23 14 357 337 13 87 62 3 334 177 243 108 121 177 179 133 44 18 48 48 29 11 32 63 96 102 58 22 23 336 323 345 349
176 174 171 167 165 166 168 169 170 171 171 171 173 177 174 170 179 172 166 185 148 143 169 151 140 151 148 159 159 157 171 173 169 174 179 179 178 187 188 214 235 225 231 222 209 222 125 129 160 142 98 12 4 21 5 325 337 55 82 11 341 306 278 248 178 218 170 126 352 338 78 69 41 347 351 355 12 59 33 315 294 244 225 327 331
178 175 172 168 166 167 170 170 171 172 172 173 176 180 179 175 181 175 166 174 154 155 167 148 148 157 154 162 160 165 175 171 176 180 181 186 183 191 193 201 224 218 232 258 191 189 183 189 199 182 255 337 346 329 322 321 339 2 32 64 298 290 302 287 263 299 7 141 209 182 143 170 181 157 288 315 332 351 349 325 297 245 286 308 317
179 177 175 171 167 167 170 172 173 172 173 174 177 181 183 183 184 178 170 173 167 163 162 153 156 161 162 167 168 180 184 173 175 178 184 191 182 192 202 195 211 215 221 252 226 216 204 194 189 176 236 289 308 309 311 302 302 298 280 216 241 243 195 244 265 315 312 327 332 139 126 278 230 138 220 217 195 263 275 309 291 298 314 307 312